User: anonymous   Login
Location: Theydon Bois
(51.6750°N, 0.1050°E)
Time: 02:12:38
(UTC+01:00)
Language:

BREEZE-M DEB (TANK) - Orbit

View from above orbital plane
View from above orbital plane
View from above satellite
View from above satellite

Ground track
Ground track

The orbit data is extracted from the following two-line orbital elements,

1 33374U 08044B   17291.87495702 +.00000140 +00000-0 +12759-3 0  9990
2 33374 049.4330 196.5603 5421164 159.0256 236.5576 04.87163854160058
Epoch (UTC): 18 October 2017 20:59:56
Eccentricity: 0.5421164
inclination: 49.4330°
perigee height: 352 km
apogee height: 16289 km
right ascension of ascending node: 196.5603°
argument of perigee: 159.0256°
revolutions per day: 4.87163854
mean anomaly at epoch: 236.5576°
orbit number at epoch: 16005

The dashed part of the orbit path shows where the satellite is in the earth's shadow,  

DLR